Homer, AK

6:07 PM AKDT on March 26, 2017 (GMT -0800)
Homer

Weather History for PAHO - January, 2014

Change the Weather History Date:

Sunday, January 5, 2014

  Actual Average Record
Temperature  
Mean Temperature 44 °F -  
Max Temperature 46 °F 28 °F 49 °F (1953)
Min Temperature 41 °F 15 °F -17 °F (1975)
Degree Days  
Heating Degree Days 22    
Moisture  
Dew Point 33 °F    
Average Humidity 64    
Maximum Humidity 71    
Minimum Humidity 58    
Precipitation  
Precipitation 0.00 in - - ()
Sea Level Pressure  
Sea Level Pressure 29.54 in    
Wind  
Wind Speed 6 mph (ESE)    
Max Wind Speed 13 mph    
Max Gust Speed 22 mph    
Visibility 10 miles    
Events Rain    
Averages and records for this station are not official NWS values.
T = Trace of Precipitation, MM = Missing Value Source: NWS Daily Summary

Daily Weather History Graph

Daily Weather History Graph

Search for Another Location

Airport or City:

Trip Planner

Search our weather history database for the weather conditions in past years. The results will help you decide how hot, cold, wet, or windy it might be!

Date:

Astronomy

Jan. 05, 2014 Rise Set
Actual Time 10:02 AM AKST 4:21 PM AKST
Civil Twilight 9:07 AM AKST 5:15 PM AKST
Nautical Twilight 8:12 AM AKST 6:10 PM AKST
Astronomical Twilight 7:22 AM AKST 7:01 PM AKST
Moon 11:22 AM AKST (1/5) 11:35 PM AKST (1/5)
Length of Visible Light 8h 08m
Length of Day
6h 18m
Waxing Crescent, 26% of the Moon is Illuminated
Jan 5
Waxing Crescent
Jan 7
First Quarter
Jan 15
Full
Jan 23
Last Quarter
Jan 30
New

Hourly Weather History & Observations

Time (AKST) Temp. Windchill Dew Point Humidity Pressure Visibility Wind Dir Wind Speed Gust Speed Precip Events Conditions
12:53 AM 44.1 °F 38.1 °F 32.0 °F 63% 29.34 in 10.0 mi East 11.5 mph - N/A   Overcast
1:53 AM 43.0 °F 38.2 °F 34.0 °F 71% 29.34 in 10.0 mi ENE 8.1 mph - 0.00 in Rain Light Rain
3:53 AM 44.1 °F 41.5 °F 34.0 °F 68% 29.35 in 10.0 mi East 4.6 mph - 0.00 in   Overcast
4:53 AM 44.1 °F 41.5 °F 33.1 °F 65% 29.38 in 10.0 mi East 4.6 mph - N/A   Overcast
5:53 AM 44.1 °F 39.0 °F 33.1 °F 65% 29.40 in 10.0 mi ESE 9.2 mph - N/A   Mostly Cloudy
6:53 AM 44.1 °F - 33.1 °F 65% 29.42 in 10.0 mi Calm Calm - N/A   Overcast
7:53 AM 41.0 °F - 32.0 °F 70% 29.44 in 10.0 mi Calm Calm - N/A   Overcast
8:53 AM 45.0 °F 41.8 °F 33.1 °F 63% 29.47 in 10.0 mi SSE 5.8 mph - N/A   Overcast
9:53 AM 46.0 °F 42.5 °F 33.1 °F 61% 29.50 in 10.0 mi Variable 6.9 mph - N/A   Overcast
10:53 AM 46.0 °F 40.6 °F 33.1 °F 61% 29.53 in 10.0 mi SE 11.5 mph - N/A   Overcast
11:53 AM 45.0 °F 43.5 °F 34.0 °F 65% 29.55 in 10.0 mi Variable 3.5 mph - N/A   Overcast
12:53 PM 46.0 °F 44.8 °F 34.0 °F 63% 29.58 in 10.0 mi SSE 3.5 mph - N/A   Overcast
1:53 PM 46.0 °F 43.1 °F 34.0 °F 63% 29.59 in 10.0 mi SE 5.8 mph - N/A   Overcast
2:53 PM 45.0 °F 43.5 °F 33.1 °F 63% 29.60 in 10.0 mi SSE 3.5 mph - N/A   Partly Cloudy
3:53 PM 43.0 °F - 33.1 °F 68% 29.62 in 10.0 mi Calm Calm - N/A   Clear
4:53 PM 43.0 °F - 32.0 °F 65% 29.63 in 10.0 mi Calm Calm - N/A   Clear
5:53 PM 45.0 °F 40.1 °F 30.9 °F 58% 29.65 in 10.0 mi SSE 9.2 mph 21.9 mph N/A   Overcast
6:53 PM 44.1 °F 42.5 °F 30.9 °F 60% 29.65 in 10.0 mi Variable 3.5 mph - N/A   Overcast
7:53 PM 44.1 °F 40.1 °F 30.9 °F 60% 29.65 in 10.0 mi Variable 6.9 mph - N/A   Overcast
8:53 PM 44.1 °F 40.1 °F 32.0 °F 63% 29.66 in 10.0 mi Variable 6.9 mph - N/A   Overcast
9:53 PM 44.1 °F 37.7 °F 32.0 °F 63% 29.65 in 10.0 mi ESE 12.7 mph 18.4 mph N/A   Overcast
10:53 PM 43.0 °F 39.5 °F 32.0 °F 65% 29.66 in 10.0 mi ESE 5.8 mph - N/A   Overcast
11:53 PM 44.1 °F - 32.0 °F 63% 29.66 in 10.0 mi Calm Calm - N/A   Mostly Cloudy